�N����,����,�~����,�C��,���x,�C��,����,���ϕ���,�ő�u�ԕ���,�ő厞����,���˗�,�I�_���x,�n�����x,�ő啗���N��,DTYPE
"21/08/07","00:10",0.0,28.2,77.4,999.1,103.1,0.8,2.2,104.1,0.00,23.9,27.5,"00:09:28",1
"21/08/07","00:20",0.0,28.2,77.5,999.3,96.1,1.0,2.1,91.3,0.00,23.9,27.5,"00:15:36",1
"21/08/07","00:30",0.0,28.2,77.6,999.1,87.5,0.7,2.2,60.4,0.00,24.0,27.5,"00:27:52",1
"21/08/07","00:40",0.0,28.2,77.9,999.1,120.5,1.0,3.4,133.0,0.00,24.0,27.5,"00:36:08",1
"21/08/07","00:50",0.0,28.2,77.9,998.6,76.2,0.7,1.9,98.7,0.00,24.0,27.3,"00:44:24",1
"21/08/07","01:00",0.0,28.1,78.0,998.9,97.9,0.6,1.2,114.5,0.00,23.9,27.4,"00:51:44",1
"21/08/07","01:10",0.0,28.0,78.4,998.6,86.4,0.6,2.7,123.0,0.00,23.9,27.4,"01:03:28",1
"21/08/07","01:20",0.0,28.0,78.7,998.6,90.2,0.8,2.5,114.7,0.00,24.0,27.4,"01:10:56",1
"21/08/07","01:30",0.0,27.9,78.9,998.4,79.4,0.5,2.1,89.7,0.00,23.9,27.3,"01:20:02",1
"21/08/07","01:40",0.0,27.8,79.2,998.4,65.4,0.8,2.7,16.5,0.00,23.9,27.4,"01:38:00",1
"21/08/07","01:50",0.0,27.7,79.3,997.9,124.0,1.0,2.4,111.8,0.00,23.8,27.2,"01:49:36",1
"21/08/07","02:00",0.0,27.8,79.4,998.4,101.8,0.7,2.4,122.6,0.00,23.9,27.4,"01:55:36",1
"21/08/07","02:10",0.0,27.8,79.2,998.4,107.0,0.8,2.0,133.5,0.00,23.9,27.4,"02:01:44",1
"21/08/07","02:20",0.0,27.8,79.1,998.4,142.0,0.6,1.7,152.0,0.00,23.9,27.2,"02:10:56",1
"21/08/07","02:30",0.0,27.8,79.1,998.4,160.7,0.8,1.8,139.5,0.00,23.9,27.3,"02:25:28",1
"21/08/07","02:40",0.0,27.9,78.9,998.4,88.1,0.7,2.4,67.9,0.00,23.9,27.2,"02:38:40",1
"21/08/07","02:50",0.0,28.0,78.6,997.9,110.6,0.8,1.9,114.8,0.00,24.0,27.2,"02:42:00",1
"21/08/07","03:00",0.0,27.8,78.6,998.2,109.1,0.8,4.3,147.7,0.00,23.8,27.4,"02:58:56",1
"21/08/07","03:10",0.0,27.9,78.9,998.2,48.8,0.6,1.7,71.1,0.00,23.9,27.0,"03:01:44",1
"21/08/07","03:20",0.0,27.8,79.2,998.2,72.1,0.8,2.2,73.2,0.00,23.9,27.3,"03:10:24",1
"21/08/07","03:30",0.0,27.6,79.6,998.2,98.2,1.0,2.8,36.1,0.00,23.8,27.1,"03:27:36",1
"21/08/07","03:40",0.0,27.5,79.9,998.4,102.8,1.0,2.4,128.7,0.00,23.8,27.1,"03:32:40",1
"21/08/07","03:50",0.0,27.5,80.1,998.4,90.8,0.6,2.1,108.6,0.00,23.8,27.1,"03:44:00",1
"21/08/07","04:00",0.0,27.4,80.4,998.4,87.0,0.6,1.8,87.0,0.00,23.8,27.2,"03:56:00",1
"21/08/07","04:10",0.0,27.5,80.4,998.4,72.5,0.7,2.4,148.1,0.00,23.9,26.9,"04:09:52",1
"21/08/07","04:20",0.0,27.5,80.5,998.6,127.2,0.8,3.7,99.6,0.00,23.9,27.1,"04:19:52",1
"21/08/07","04:30",0.0,27.1,81.5,998.6,108.7,1.1,3.6,134.5,0.00,23.7,27.0,"04:21:52",1
"21/08/07","04:40",0.0,27.0,82.2,998.2,23.7,0.6,2.4,128.6,0.00,23.7,27.0,"04:30:16",1
"21/08/07","04:50",0.0,26.9,82.7,998.2,265.8,0.5,1.8,132.8,0.00,23.7,27.2,"04:46:48",1
"21/08/07","05:00",0.0,26.8,83.1,998.6,105.1,0.5,1.7,125.7,0.00,23.7,27.1,"04:52:16",1
"21/08/07","05:10",0.0,26.8,83.5,998.6,5.6,0.5,1.4,134.6,0.00,23.8,27.1,"05:09:36",1
"21/08/07","05:20",0.0,26.8,83.7,998.4,93.8,0.6,1.8,72.7,0.00,23.8,27.0,"05:18:48",1
"21/08/07","05:30",0.0,26.8,83.7,998.6,98.1,0.7,2.1,127.3,0.00,23.8,27.1,"05:20:48",1
"21/08/07","05:40",0.0,26.8,83.5,997.9,106.6,1.0,3.2,140.8,0.00,23.8,27.0,"05:31:28",1
"21/08/07","05:50",0.0,26.8,83.5,998.6,123.8,0.6,1.6,136.2,0.00,23.8,27.0,"05:42:00",1
"21/08/07","06:00",0.0,26.8,83.6,998.9,142.5,0.8,2.4,136.9,0.00,23.8,26.9,"05:50:56",1
"21/08/07","06:10",0.0,26.9,83.7,998.9,107.1,0.8,3.4,17.4,0.00,23.9,26.9,"06:05:12",1
"21/08/07","06:20",0.0,26.9,83.6,998.9,112.1,0.7,2.6,151.1,0.00,23.9,26.9,"06:15:36",1
"21/08/07","06:30",0.0,27.1,83.1,998.9,76.7,0.8,2.0,59.3,0.00,24.0,27.0,"06:20:56",1
"21/08/07","06:40",0.0,27.2,82.7,998.6,58.7,0.7,1.7,123.5,0.01,24.0,27.0,"06:35:04",1
"21/08/07","06:50",0.0,27.3,82.2,998.9,56.1,0.7,2.4,64.0,0.02,24.0,27.0,"06:49:04",1
"21/08/07","07:00",0.0,27.4,81.9,998.9,95.5,0.6,1.6,49.3,0.02,24.1,26.8,"06:59:44",1
"21/08/07","07:10",0.0,27.5,81.6,999.1,53.6,0.6,1.8,61.7,0.00,24.1,26.8,"07:03:52",1
"21/08/07","07:20",0.0,27.5,81.4,998.9,48.4,0.6,1.8,41.2,0.00,24.1,26.9,"07:14:08",1
"21/08/07","07:30",0.0,27.5,81.4,999.1,22.1,0.5,1.4,42.9,0.00,24.1,26.8,"07:27:12",1
"21/08/07","07:40",0.0,27.6,81.5,998.9,48.6,0.6,1.2,86.4,0.02,24.2,26.9,"07:31:28",1
"21/08/07","07:50",0.0,28.1,81.5,998.6,54.7,0.7,1.8,54.5,0.12,24.7,27.1,"07:46:56",1
"21/08/07","08:00",0.0,28.9,79.1,998.4,109.1,1.0,2.5,98.0,0.20,25.0,26.9,"07:58:40",1
"21/08/07","08:10",0.0,29.0,77.5,998.2,93.0,0.8,2.2,49.0,0.09,24.7,26.8,"08:04:56",1
"21/08/07","08:20",0.0,28.8,77.3,998.2,80.0,0.7,1.4,61.4,0.05,24.5,27.1,"08:10:48",1
"21/08/07","08:30",0.0,28.9,76.9,998.2,90.2,1.0,2.1,99.3,0.10,24.5,27.1,"08:27:20",1
"21/08/07","08:40",0.0,28.9,76.5,997.7,127.9,1.2,2.9,116.0,0.10,24.4,27.0,"08:34:32",1
"21/08/07","08:50",0.0,29.5,75.8,997.9,109.9,1.0,2.4,108.8,0.17,24.8,26.9,"08:41:28",1
"21/08/07","09:00",0.0,29.4,74.2,997.9,114.4,1.2,3.1,65.6,0.10,24.4,27.0,"08:58:32",1
"21/08/07","09:10",0.0,29.2,74.4,998.2,100.4,1.3,3.3,60.3,0.07,24.2,26.9,"09:08:48",1
"21/08/07","09:20",0.0,29.2,74.6,998.2,90.5,1.1,2.7,130.8,0.05,24.3,27.2,"09:15:12",1
"21/08/07","09:30",0.0,29.2,74.9,998.2,113.3,1.0,3.1,121.1,0.05,24.3,27.0,"09:27:28",1
"21/08/07","09:40",0.0,29.3,75.1,997.9,114.8,1.1,2.4,95.3,0.11,24.5,27.1,"09:33:28",1
"21/08/07","09:50",0.0,29.6,74.8,998.2,107.0,0.8,2.0,131.2,0.13,24.7,27.0,"09:41:20",1
"21/08/07","10:00",0.0,29.8,74.3,998.2,122.5,0.6,2.0,105.0,0.11,24.8,27.2,"09:52:00",1
"21/08/07","10:10",0.0,30.1,74.1,998.4,134.8,1.1,2.4,147.3,0.21,25.0,27.1,"10:07:20",1
"21/08/07","10:20",0.0,30.7,71.9,999.1,111.0,1.0,2.8,59.7,0.24,25.1,27.1,"10:11:04",1
"21/08/07","10:30",0.0,30.7,70.8,999.6,134.4,1.2,2.6,96.4,0.18,24.8,27.2,"10:26:40",1
"21/08/07","10:40",0.0,30.1,70.4,998.9,125.1,1.3,3.4,144.3,0.11,24.2,27.1,"10:33:12",1
"21/08/07","10:50",0.0,30.0,70.6,998.9,149.4,2.2,4.8,166.7,0.16,24.1,27.3,"10:46:56",1
"21/08/07","11:00",0.0,29.8,71.5,998.9,171.8,1.7,4.1,186.3,0.05,24.1,27.1,"10:52:16",1
"21/08/07","11:10",0.0,29.7,72.1,998.4,136.9,1.2,3.1,152.8,0.04,24.2,27.3,"11:02:56",1
"21/08/07","11:20",0.0,29.9,71.7,998.4,115.2,1.0,3.7,133.5,0.07,24.3,27.4,"11:17:04",1
"21/08/07","11:30",0.0,30.3,71.0,998.2,133.9,1.3,3.6,189.3,0.15,24.5,27.2,"11:24:08",1
"21/08/07","11:40",0.0,31.4,68.5,998.4,156.4,1.8,4.0,122.4,0.31,24.9,27.3,"11:34:08",1
"21/08/07","11:50",0.0,31.8,66.4,998.9,126.4,2.0,6.3,154.8,0.31,24.8,27.2,"11:42:48",1
"21/08/07","12:00",0.0,32.1,64.2,999.1,140.0,2.1,5.8,141.0,0.37,24.5,27.6,"11:51:12",1
"21/08/07","12:10",0.0,32.1,64.1,999.1,117.9,1.8,4.8,94.7,0.31,24.5,27.3,"12:04:24",1
"21/08/07","12:20",0.0,33.1,63.1,999.3,113.2,1.7,3.9,117.1,0.47,25.2,27.3,"12:12:56",1
"21/08/07","12:30",0.0,33.4,59.6,999.6,130.1,1.6,2.8,133.4,0.39,24.5,27.6,"12:22:00",1
"21/08/07","12:40",0.0,33.5,59.0,999.8,104.0,1.3,4.0,92.8,0.35,24.4,27.7,"12:37:04",1
"21/08/07","12:50",0.0,34.1,58.5,999.8,126.9,1.5,3.6,138.2,0.48,24.8,27.7,"12:44:40",1
"21/08/07","13:00",0.0,32.9,58.8,999.6,120.3,1.8,4.3,150.3,0.20,23.8,27.7,"12:53:12",1
"21/08/07","13:10",0.0,32.5,60.4,999.3,111.2,1.6,5.5,132.3,0.19,23.9,27.8,"13:09:04",1
"21/08/07","13:20",0.0,32.2,59.9,998.9,110.4,1.5,4.4,138.8,0.13,23.5,27.8,"13:12:48",1
"21/08/07","13:30",0.0,32.3,61.4,998.9,116.1,1.3,2.5,114.6,0.13,24.0,27.7,"13:20:16",1
"21/08/07","13:40",0.0,32.5,62.2,998.9,136.8,1.1,3.2,152.0,0.22,24.4,28.0,"13:34:16",1
"21/08/07","13:50",0.0,32.5,62.2,999.1,127.0,1.2,2.6,155.8,0.20,24.4,27.9,"13:43:44",1
"21/08/07","14:00",0.0,32.5,62.4,998.9,140.5,1.2,3.3,165.4,0.17,24.4,27.7,"13:53:44",1
"21/08/07","14:10",0.0,32.7,61.6,998.6,115.1,1.6,4.9,134.3,0.23,24.4,28.1,"14:00:40",1
"21/08/07","14:20",0.0,33.3,60.5,998.4,103.2,1.6,5.0,97.3,0.35,24.7,27.9,"14:10:40",1
"21/08/07","14:30",0.0,33.8,58.1,998.9,87.8,1.6,6.2,143.9,0.40,24.4,28.2,"14:28:56",1
"21/08/07","14:40",0.0,33.2,60.2,998.4,123.6,1.6,3.4,132.1,0.21,24.5,28.1,"14:36:40",1
"21/08/07","14:50",0.0,32.8,61.1,998.2,104.5,1.3,3.1,74.5,0.16,24.4,28.2,"14:43:52",1
"21/08/07","15:00",0.0,33.4,61.8,997.7,123.3,1.7,3.6,161.3,0.35,25.1,28.1,"14:53:04",1
"21/08/07","15:10",0.0,33.5,59.0,998.4,119.0,1.7,4.5,133.5,0.39,24.4,28.1,"15:04:00",1
"21/08/07","15:20",0.0,33.8,57.0,998.2,124.4,2.0,4.9,133.8,0.41,24.1,28.3,"15:12:32",1
"21/08/07","15:30",0.0,34.4,56.6,998.4,103.2,1.6,3.6,116.0,0.42,24.6,28.2,"15:28:24",1
"21/08/07","15:40",0.0,33.1,57.8,997.9,137.1,2.0,4.1,170.1,0.19,23.7,28.3,"15:32:40",1
"21/08/07","15:50",0.0,34.0,57.5,997.9,121.7,2.0,4.4,123.1,0.39,24.5,28.1,"15:40:02",1
"21/08/07","16:00",0.0,33.9,55.0,997.9,134.6,2.6,7.5,135.8,0.36,23.6,28.4,"15:58:56",1
"21/08/07","16:10",0.0,33.7,56.5,997.7,141.0,2.1,5.9,102.9,0.31,23.9,28.2,"16:00:16",1
"21/08/07","16:20",0.0,34.0,56.0,997.2,131.2,1.6,5.4,194.5,0.28,24.0,28.3,"16:14:08",1
"21/08/07","16:30",0.0,33.6,55.2,997.7,106.7,1.2,3.3,126.4,0.13,23.4,28.3,"16:27:12",1
"21/08/07","16:40",0.0,32.5,59.1,997.7,123.8,1.2,3.1,122.0,0.06,23.5,28.5,"16:30:48",1
"21/08/07","16:50",0.0,33.4,58.0,997.7,122.1,1.3,2.6,135.2,0.21,24.0,28.5,"16:41:04",1
"21/08/07","17:00",0.0,33.5,56.6,997.9,115.9,1.3,3.2,153.2,0.19,23.7,28.5,"16:59:12",1
"21/08/07","17:10",0.0,33.3,56.7,997.9,139.2,2.0,4.5,104.2,0.19,23.6,28.5,"17:09:12",1
"21/08/07","17:20",0.0,33.5,54.8,997.9,98.1,1.2,3.7,77.1,0.16,23.2,28.4,"17:18:16",1
"21/08/07","17:30",0.0,33.2,55.1,997.7,116.4,1.6,4.9,159.1,0.12,23.0,28.5,"17:28:16",1
"21/08/07","17:40",0.0,33.2,56.5,997.9,127.0,1.2,3.2,81.7,0.12,23.4,28.3,"17:32:00",1
"21/08/07","17:50",0.0,32.9,56.9,998.2,115.5,1.5,4.1,127.7,0.08,23.3,28.5,"17:41:20",1
"21/08/07","18:00",0.0,32.6,58.4,998.2,113.5,1.2,2.9,122.7,0.05,23.4,28.6,"17:58:40",1
"21/08/07","18:10",0.0,32.3,59.5,997.7,124.3,1.2,2.6,103.8,0.04,23.4,28.3,"18:00:24",1
"21/08/07","18:20",0.0,31.6,61.3,997.2,147.2,1.5,3.6,149.6,0.02,23.3,28.5,"18:12:16",1
"21/08/07","18:30",0.0,31.6,61.9,997.4,85.1,1.0,2.6,136.9,0.01,23.4,28.4,"18:22:08",1
"21/08/07","18:40",0.0,31.5,62.1,997.4,49.7,1.1,2.5,91.4,0.01,23.4,28.4,"18:33:52",1
"21/08/07","18:50",0.0,31.2,63.0,996.7,44.7,0.7,1.9,97.7,0.00,23.4,28.4,"18:40:02",1
"21/08/07","19:00",0.0,30.9,63.8,996.7,59.8,0.7,1.7,77.9,0.00,23.3,28.3,"18:50:40",1
"21/08/07","19:10",0.0,30.6,65.0,996.7,17.4,0.7,1.8,18.2,0.00,23.3,28.3,"19:05:40",1
"21/08/07","19:20",0.0,30.2,66.1,996.5,31.2,0.7,2.1,50.0,0.00,23.2,28.2,"19:17:52",1
"21/08/07","19:30",0.0,30.0,66.9,996.5,36.0,1.0,3.1,49.8,0.00,23.2,28.4,"19:28:00",1
"21/08/07","19:40",0.0,29.8,67.4,995.8,28.6,0.7,1.8,46.3,0.00,23.1,28.3,"19:30:56",1
"21/08/07","19:50",0.0,29.5,67.9,996.0,15.0,0.5,1.1,32.9,0.00,23.0,28.3,"19:40:08",1
"21/08/07","20:00",0.0,29.3,69.4,996.0,352.7,0.7,1.7,349.1,0.00,23.2,28.1,"19:57:28",1
"21/08/07","20:10",0.0,28.5,71.7,996.7,308.8,0.7,1.7,319.4,0.00,22.9,28.1,"20:02:40",1
"21/08/07","20:20",0.0,28.3,73.4,996.7,284.7,0.5,1.8,256.3,0.00,23.1,28.2,"20:17:52",1
"21/08/07","20:30",0.0,28.0,74.8,996.7,324.8,0.8,1.4,344.6,0.00,23.1,28.1,"20:27:04",1
"21/08/07","20:40",0.0,27.7,76.3,996.7,328.9,1.3,2.7,337.2,0.00,23.2,28.0,"20:38:40",1
"21/08/07","20:50",0.0,27.5,77.1,997.0,326.7,1.3,2.2,326.1,0.00,23.2,28.1,"20:49:52",1
"21/08/07","21:00",0.0,27.5,77.7,997.0,327.7,1.5,2.6,338.9,0.00,23.3,28.1,"20:53:04",1
"21/08/07","21:10",0.0,27.4,77.9,997.0,300.5,0.8,2.1,352.4,0.00,23.2,28.0,"21:00:56",1
"21/08/07","21:20",0.0,27.3,78.2,997.0,274.0,0.8,1.8,312.6,0.00,23.2,28.1,"21:18:32",1
"21/08/07","21:30",0.0,27.3,78.3,997.0,309.4,1.3,2.7,347.0,0.00,23.2,27.9,"21:27:12",1
"21/08/07","21:40",0.0,27.3,78.2,997.2,336.2,1.3,3.4,339.8,0.00,23.2,27.9,"21:35:36",1
"21/08/07","21:50",0.0,27.3,78.0,997.0,340.5,1.5,2.4,357.5,0.00,23.2,27.8,"21:40:32",1
"21/08/07","22:00",0.0,27.2,78.2,997.2,337.5,1.6,3.1,340.6,0.00,23.1,27.8,"21:52:40",1
"21/08/07","22:10",0.0,27.4,77.5,997.2,323.6,1.7,2.9,317.7,0.00,23.2,27.7,"22:06:00",1
"21/08/07","22:20",0.0,27.6,76.7,997.0,275.2,1.1,1.8,306.1,0.00,23.2,27.8,"22:10:08",1
"21/08/07","22:30",0.0,27.2,77.2,997.2,267.3,1.0,1.8,247.9,0.00,22.9,27.7,"22:20:32",1
"21/08/07","22:40",0.0,26.8,78.0,997.2,301.4,0.6,1.3,246.6,0.00,22.7,27.8,"22:30:40",1
"21/08/07","22:50",0.0,26.5,78.7,997.2,310.1,0.3,0.9,276.2,0.00,22.5,27.7,"22:49:36",1
"21/08/07","23:00",0.0,26.3,79.9,997.0,324.3,0.8,1.4,341.5,0.00,22.6,27.6,"22:56:08",1
"21/08/07","23:10",0.0,26.2,81.3,996.7,326.3,1.3,2.6,331.5,0.00,22.8,27.7,"23:04:48",1
"21/08/07","23:20",0.0,26.2,81.7,997.0,316.3,0.7,1.4,285.5,0.00,22.9,27.6,"23:10:56",1
"21/08/07","23:30",0.0,25.9,82.1,997.0,324.6,0.7,1.2,334.4,0.00,22.7,27.5,"23:20:16",1
"21/08/07","23:40",0.0,25.6,82.5,996.7,296.8,0.3,0.8,211.6,0.00,22.4,27.6,"23:34:56",1
"21/08/07","23:50",0.0,25.6,83.4,996.5,330.8,1.2,2.0,339.8,0.00,22.6,27.2,"23:48:56",1
"21/08/07","24:00",0.0,25.6,83.9,997.0,306.0,0.7,1.6,341.5,0.00,22.7,27.4,"23:50:08",1
